Tracking 35331 objects as of 17-Sep-2026
HD Live streaming from Space Station
objects crossing your sky now

TITAN 3C TRANSTAGE DEB

Track TITAN 3C TRANSTAGE DEB now!


NORAD ID: 43455
Int'l Code: 1969-013N
Launch date: February 9, 1969
Source: United States (US)
Launch site: AIR FORCE EASTERN TEST RANGE (AFETR)

Note: This is SATELLITE DEBRIS
Your satellite tracking list
Your tracking list is empty




NASA's NSSDC Master Catalog

Two Line Element Set (TLE):
1 43455U 69013N   26258.82607191 -.00000182  00000-0  00000-0 0  9999
2 43455   1.8126 128.2668 0215657  51.1172 311.3328  0.94016038 29202
Source of the keplerian elements: AFSPC